User: anonymous   Login
Location: Niedergestelen
(46.3129°N, 7.7822°E)
Time: 09:20:09
(UTC+00:00)
Language:

CANX 3A (UNIBRITE) - Orbit

View from above orbital plane
View from above orbital plane
View from above satellite
View from above satellite

Ground track
Ground track

The orbit data is extracted from the following two-line orbital elements,

1 39092U 13009G   21166.77646110  .00000011  00000-0  18996-4 0  9993
2 39092  98.4310   7.8580 0008229 287.8126  72.2161 14.35061426434791
Epoch (UTC): 15 June 2021 18:38:06
Eccentricity: 0.0008229
inclination: 98.4310°
perigee height: 769 km
apogee height: 781 km
right ascension of ascending node: 7.8580°
argument of perigee: 287.8126°
revolutions per day: 14.35061426
mean anomaly at epoch: 72.2161°
orbit number at epoch: 43479

The dashed part of the orbit path shows where the satellite is in the earth's shadow,  

DLR